Wetterdaten: aktuell Mittwoch, 27.05.2020 08:30
Datum Zeit Temp. Feuchte Luftdruck Nieders. Wind Richtung Richtung Sonnenschein Solar Taupunkt Windchill Windben
27.05.2020 08:30 10,8 C 85 % 1033,9 hPa 0,0 l/m 0,0 km/h (0 Bft) O-SO 108 5 min 406 W/m 8,4 C 10,8 C 0,0 km/h (0 Bft)
27.05.2020 08:25 10,5 C 86 % 1033,9 hPa 0,0 l/m 0,0 km/h (0 Bft) O-SO 108 5 min 385 W/m 8,3 C 10,5 C 0,0 km/h (0 Bft)
27.05.2020 08:20 10,2 C 87 % 1034,0 hPa 0,0 l/m 0,0 km/h (0 Bft) O-SO 107 5 min 169 W/m 8,1 C 10,2 C 0,0 km/h (0 Bft)
27.05.2020 08:15 9,9 C 87 % 1034,0 hPa 0,0 l/m 0,0 km/h (0 Bft) O-SO 107 0 min 47 W/m 7,8 C 9,9 C 0,0 km/h (0 Bft)
27.05.2020 08:10 9,7 C 88 % 1034,0 hPa 0,0 l/m 0,0 km/h (0 Bft) O-SO 108 0 min 46 W/m 7,8 C 9,7 C 0,0 km/h (0 Bft)
27.05.2020 08:05 9,5 C 88 % 1034,0 hPa 0,0 l/m 0,0 km/h (0 Bft) O-SO 108 0 min 44 W/m 7,6 C 9,5 C 0,0 km/h (0 Bft)
27.05.2020 08:00 9,2 C 89 % 1034,0 hPa 0,0 l/m 0,0 km/h (0 Bft) O-SO 107 0 min 44 W/m 7,5 C 9,2 C 0,0 km/h (0 Bft)
27.05.2020 07:55 9,0 C 90 % 1034,0 hPa 0,0 l/m 0,0 km/h (0 Bft) O-SO 108 0 min 40 W/m 7,4 C 9,0 C 0,0 km/h (0 Bft)
27.05.2020 07:50 8,8 C 90 % 1034,1 hPa 0,0 l/m 0,0 km/h (0 Bft) O-SO 108 0 min 40 W/m 7,3 C 8,8 C 0,0 km/h (0 Bft)
27.05.2020 07:45 8,6 C 90 % 1034,0 hPa 0,0 l/m 0,0 km/h (0 Bft) O-SO 107 0 min 37 W/m 7,1 C 8,6 C 0,0 km/h (0 Bft)
27.05.2020 07:40 8,4 C 90 % 1034,1 hPa 0,0 l/m 0,0 km/h (0 Bft) O-SO 107 0 min 35 W/m 6,9 C 8,4 C 0,0 km/h (0 Bft)
27.05.2020 07:35 8,2 C 91 % 1034,0 hPa 0,0 l/m 0,0 km/h (0 Bft) O-SO 108 0 min 35 W/m 6,8 C 8,2 C 0,0 km/h (0 Bft)
27.05.2020 07:30 7,9 C 92 % 1034,0 hPa 0,0 l/m 0,0 km/h (0 Bft) O-SO 108 0 min 33 W/m 6,7 C 7,9 C 0,0 km/h (0 Bft)
27.05.2020 07:25 7,7 C 92 % 1034,0 hPa 0,0 l/m 0,0 km/h (0 Bft) O-SO 107 0 min 33 W/m 6,5 C 7,7 C 0,0 km/h (0 Bft)
27.05.2020 07:20 7,5 C 93 % 1034,1 hPa 0,0 l/m 0,0 km/h (0 Bft) O-SO 108 0 min 32 W/m 6,4 C 7,5 C 0,0 km/h (0 Bft)
27.05.2020 07:15 7,3 C 93 % 1034,0 hPa 0,0 l/m 0,0 km/h (0 Bft) O-SO 113 0 min 30 W/m 6,2 C 7,3 C 0,0 km/h (0 Bft)
27.05.2020 07:10 7,2 C 93 % 1034,0 hPa 0,0 l/m 0,0 km/h (0 Bft) O-SO 113 0 min 30 W/m 6,1 C 7,2 C 0,0 km/h (0 Bft)
27.05.2020 07:05 7,0 C 93 % 1034,1 hPa 0,0 l/m 0,0 km/h (0 Bft) O-SO 117 0 min 28 W/m 5,9 C 7,0 C 0,0 km/h (0 Bft)
27.05.2020 07:00 6,9 C 94 % 1034,0 hPa 0,0 l/m 0,0 km/h (0 Bft) O-SO 117 0 min 30 W/m 6,0 C 6,9 C 0,0 km/h (0 Bft)
27.05.2020 06:55 6,7 C 94 % 1033,9 hPa 0,0 l/m 0,0 km/h (0 Bft) O-SO 117 0 min 26 W/m 5,8 C 6,7 C 0,0 km/h (0 Bft)
27.05.2020 06:50 6,6 C 94 % 1033,9 hPa 0,0 l/m 0,0 km/h (0 Bft) O-SO 117 0 min 25 W/m 5,7 C 6,6 C 0,0 km/h (0 Bft)
27.05.2020 06:45 6,5 C 94 % 1033,9 hPa 0,0 l/m 0,0 km/h (0 Bft) O-SO 117 0 min 25 W/m 5,6 C 6,5 C 0,0 km/h (0 Bft)
27.05.2020 06:40 6,4 C 94 % 1033,9 hPa 0,0 l/m 0,0 km/h (0 Bft) O-SO 117 0 min 23 W/m 5,5 C 6,4 C 0,0 km/h (0 Bft)
27.05.2020 06:35 6,2 C 94 % 1033,9 hPa 0,0 l/m 0,0 km/h (0 Bft) O-SO 117 0 min 23 W/m 5,3 C 6,2 C 0,0 km/h (0 Bft)
27.05.2020 06:30 6,1 C 94 % 1033,8 hPa 0,0 l/m 0,0 km/h (0 Bft) O-SO 117 0 min 21 W/m 5,2 C 6,1 C 0,0 km/h (0 Bft)
27.05.2020 06:25 5,7 C 94 % 1033,8 hPa 0,0 l/m 0,0 km/h (0 Bft) O-SO 117 0 min 19 W/m 4,8 C 5,7 C 0,0 km/h (0 Bft)
27.05.2020 06:20 5,5 C 93 % 1033,7 hPa 0,0 l/m 0,0 km/h (0 Bft) O-SO 117 0 min 18 W/m 4,5 C 5,5 C 0,0 km/h (0 Bft)
27.05.2020 06:15 5,4 C 93 % 1033,8 hPa 0,0 l/m 0,0 km/h (0 Bft) O-SO 117 0 min 18 W/m 4,4 C 5,4 C 0,0 km/h (0 Bft)
27.05.2020 06:10 5,3 C 94 % 1033,7 hPa 0,0 l/m 0,0 km/h (0 Bft) O-SO 117 0 min 16 W/m 4,4 C 5,3 C 0,0 km/h (0 Bft)
27.05.2020 06:05 5,2 C 93 % 1033,7 hPa 0,0 l/m 0,0 km/h (0 Bft) O-SO 117 0 min 14 W/m 4,2 C 5,2 C 0,0 km/h (0 Bft)
27.05.2020 05:55 5,1 C 93 % 1033,8 hPa 0,0 l/m 0,0 km/h (0 Bft) N 0 0 min 11 W/m 4,1 C 5,1 C 0,0 km/h (0 Bft)
27.05.2020 05:50 5,1 C 93 % 1033,8 hPa 0,0 l/m 0,0 km/h (0 Bft) N 0 0 min 11 W/m 4,1 C 5,1 C 0,0 km/h (0 Bft)
27.05.2020 05:45 5,1 C 93 % 1033,8 hPa 0,0 l/m 0,0 km/h (0 Bft) N 0 0 min 9 W/m 4,1 C 5,1 C 0,0 km/h (0 Bft)
27.05.2020 05:40 5,1 C 92 % 1033,8 hPa 0,0 l/m 0,0 km/h (0 Bft) N 0 0 min 7 W/m 3,9 C 5,1 C 0,0 km/h (0 Bft)
27.05.2020 05:35 5,1 C 92 % 1033,8 hPa 0,0 l/m 0,0 km/h (0 Bft) N 0 0 min 5 W/m 3,9 C 5,1 C 0,0 km/h (0 Bft)
27.05.2020 05:30 5,2 C 92 % 1033,7 hPa 0,0 l/m 0,0 km/h (0 Bft) N 0 0 min 0 W/m 4,0 C 5,2 C 0,0 km/h (0 Bft)
27.05.2020 05:25 5,2 C 92 % 1033,7 hPa 0,0 l/m 0,0 km/h (0 Bft) N 0 0 min 0 W/m 4,0 C 5,2 C 0,0 km/h (0 Bft)
27.05.2020 05:20 5,3 C 92 % 1033,7 hPa 0,0 l/m 0,0 km/h (0 Bft) N 0 0 min 0 W/m 4,1 C 5,3 C 0,0 km/h (0 Bft)
27.05.2020 05:15 5,3 C 92 % 1033,7 hPa 0,0 l/m 0,0 km/h (0 Bft) N 0 0 min 0 W/m 4,1 C 5,3 C 0,0 km/h (0 Bft)
27.05.2020 05:10 5,3 C 92 % 1033,7 hPa 0,0 l/m 0,0 km/h (0 Bft) N 0 0 min 0 W/m 4,1 C 5,3 C 0,0 km/h (0 Bft)
27.05.2020 05:05 5,3 C 91 % 1033,7 hPa 0,0 l/m 0,0 km/h (0 Bft) N 0 0 min 0 W/m 4,0 C 5,3 C 0,0 km/h (0 Bft)
27.05.2020 05:00 5,5 C 92 % 1033,7 hPa 0,0 l/m 0,0 km/h (0 Bft) N 0 0 min 0 W/m 4,3 C 5,5 C 0,0 km/h (0 Bft)
27.05.2020 04:55 5,5 C 92 % 1033,8 hPa 0,0 l/m 0,0 km/h (0 Bft) N 0 0 min 0 W/m 4,3 C 5,5 C 0,0 km/h (0 Bft)
27.05.2020 04:50 5,6 C 92 % 1033,7 hPa 0,0 l/m 0,0 km/h (0 Bft) N 0 0 min 0 W/m 4,4 C 5,6 C 0,0 km/h (0 Bft)
27.05.2020 04:45 5,6 C 92 % 1033,7 hPa 0,0 l/m 0,0 km/h (0 Bft) N 0 0 min 0 W/m 4,4 C 5,6 C 0,0 km/h (0 Bft)
27.05.2020 04:40 5,7 C 91 % 1033,7 hPa 0,0 l/m 0,0 km/h (0 Bft) N 0 0 min 0 W/m 4,3 C 5,7 C 0,0 km/h (0 Bft)
27.05.2020 04:35 5,7 C 91 % 1033,7 hPa 0,0 l/m 0,0 km/h (0 Bft) N 0 0 min 0 W/m 4,3 C 5,7 C 0,0 km/h (0 Bft)
27.05.2020 04:30 5,8 C 92 % 1033,7 hPa 0,0 l/m 0,0 km/h (0 Bft) N 0 0 min 0 W/m 4,6 C 5,8 C 0,0 km/h (0 Bft)
27.05.2020 04:25 5,8 C 91 % 1033,6 hPa 0,0 l/m 0,0 km/h (0 Bft) N 0 0 min 0 W/m 4,4 C 5,8 C 0,0 km/h (0 Bft)
27.05.2020 04:20 5,9 C 91 % 1033,6 hPa 0,0 l/m 0,0 km/h (0 Bft) N 0 0 min 0 W/m 4,5 C 5,9 C 0,0 km/h (0 Bft)
27.05.2020 04:15 6,1 C 92 % 1033,5 hPa 0,0 l/m 0,0 km/h (0 Bft) N 0 0 min 0 W/m 4,9 C 6,1 C 0,0 km/h (0 Bft)
27.05.2020 04:10 6,1 C 91 % 1033,6 hPa 0,0 l/m 0,0 km/h (0 Bft) N 0 0 min 0 W/m 4,7 C 6,1 C 0,0 km/h (0 Bft)
27.05.2020 04:05 6,1 C 91 % 1033,6 hPa 0,0 l/m 0,0 km/h (0 Bft) N 0 0 min 0 W/m 4,7 C 6,1 C 0,0 km/h (0 Bft)
27.05.2020 04:00 6,1 C 91 % 1033,7 hPa 0,0 l/m 0,0 km/h (0 Bft) N 0 0 min 0 W/m 4,7 C 6,1 C 0,0 km/h (0 Bft)
27.05.2020 03:55 6,1 C 91 % 1033,6 hPa 0,0 l/m 0,0 km/h (0 Bft) N 0 0 min 0 W/m 4,7 C 6,1 C 0,0 km/h (0 Bft)
27.05.2020 03:50 6,1 C 91 % 1033,6 hPa 0,0 l/m 0,0 km/h (0 Bft) N 0 0 min 0 W/m 4,7 C 6,1 C 0,0 km/h (0 Bft)
27.05.2020 03:45 6,2 C 91 % 1033,7 hPa 0,0 l/m 0,0 km/h (0 Bft) N 0 0 min 0 W/m 4,8 C 6,2 C 0,0 km/h (0 Bft)
27.05.2020 03:40 6,2 C 91 % 1033,7 hPa 0,0 l/m 0,0 km/h (0 Bft) N 0 0 min 0 W/m 4,8 C 6,2 C 0,0 km/h (0 Bft)
27.05.2020 03:35 6,3 C 91 % 1033,8 hPa 0,0 l/m 0,0 km/h (0 Bft) N 0 0 min 0 W/m 4,9 C 6,3 C 0,0 km/h (0 Bft)
27.05.2020 03:30 6,4 C 91 % 1033,9 hPa 0,0 l/m 0,0 km/h (0 Bft) N 0 0 min 0 W/m 5,0 C 6,4 C 0,0 km/h (0 Bft)
27.05.2020 03:25 6,4 C 90 % 1033,9 hPa 0,0 l/m 0,0 km/h (0 Bft) N 0 0 min 0 W/m 4,9 C 6,4 C 0,0 km/h (0 Bft)
27.05.2020 03:20 6,6 C 91 % 1033,9 hPa 0,0 l/m 0,0 km/h (0 Bft) N 0 0 min 0 W/m 5,2 C 6,6 C 0,0 km/h (0 Bft)
27.05.2020 03:15 6,6 C 90 % 1033,9 hPa 0,0 l/m 0,0 km/h (0 Bft) N 0 0 min 0 W/m 5,1 C 6,6 C 0,0 km/h (0 Bft)
27.05.2020 03:10 6,6 C 90 % 1033,9 hPa 0,0 l/m 0,0 km/h (0 Bft) N 0 0 min 0 W/m 5,1 C 6,6 C 0,0 km/h (0 Bft)
27.05.2020 03:05 6,7 C 90 % 1034,0 hPa 0,0 l/m 0,0 km/h (0 Bft) N 0 0 min 0 W/m 5,2 C 6,7 C 0,0 km/h (0 Bft)
27.05.2020 03:00 6,9 C 90 % 1034,0 hPa 0,0 l/m 0,0 km/h (0 Bft) N 0 0 min 0 W/m 5,4 C 6,9 C 0,0 km/h (0 Bft)
27.05.2020 02:55 7,0 C 90 % 1033,9 hPa 0,0 l/m 0,0 km/h (0 Bft) N 0 0 min 0 W/m 5,5 C 7,0 C 0,0 km/h (0 Bft)
27.05.2020 02:50 7,0 C 89 % 1033,9 hPa 0,0 l/m 0,0 km/h (0 Bft) N 0 0 min 0 W/m 5,3 C 7,0 C 0,0 km/h (0 Bft)
27.05.2020 02:45 7,1 C 89 % 1034,0 hPa 0,0 l/m 0,0 km/h (0 Bft) N 0 0 min 0 W/m 5,4 C 7,1 C 0,0 km/h (0 Bft)
27.05.2020 02:40 7,2 C 89 % 1033,9 hPa 0,0 l/m 0,0 km/h (0 Bft) N 0 0 min 0 W/m 5,5 C 7,2 C 0,0 km/h (0 Bft)
27.05.2020 02:35 7,3 C 89 % 1034,0 hPa 0,0 l/m 0,0 km/h (0 Bft) N 0 0 min 0 W/m 5,6 C 7,3 C 0,0 km/h (0 Bft)
27.05.2020 02:30 7,3 C 89 % 1034,0 hPa 0,0 l/m 0,0 km/h (0 Bft) N 0 0 min 0 W/m 5,6 C 7,3 C 0,0 km/h (0 Bft)
27.05.2020 02:25 7,3 C 89 % 1034,0 hPa 0,0 l/m 0,0 km/h (0 Bft) N 0 0 min 0 W/m 5,6 C 7,3 C 0,0 km/h (0 Bft)
27.05.2020 02:20 7,4 C 89 % 1033,9 hPa 0,0 l/m 0,0 km/h (0 Bft) N 0 0 min 0 W/m 5,7 C 7,4 C 0,0 km/h (0 Bft)
27.05.2020 02:15 7,4 C 92 % 1033,9 hPa 0,0 l/m 0,0 km/h (0 Bft) N 0 0 min 0 W/m 6,2 C 7,4 C 0,0 km/h (0 Bft)
27.05.2020 02:10 7,5 C 88 % 1033,9 hPa 0,0 l/m 0,0 km/h (0 Bft) N 0 0 min 0 W/m 5,6 C 7,5 C 0,0 km/h (0 Bft)
27.05.2020 02:05 7,6 C 88 % 1033,9 hPa 0,0 l/m 0,0 km/h (0 Bft) N 0 0 min 0 W/m 5,7 C 7,6 C 0,0 km/h (0 Bft)
27.05.2020 02:00 7,7 C 88 % 1033,8 hPa 0,0 l/m 0,0 km/h (0 Bft) N 0 0 min 0 W/m 5,8 C 7,7 C 0,0 km/h (0 Bft)
27.05.2020 01:55 7,8 C 88 % 1034,0 hPa 0,0 l/m 0,0 km/h (0 Bft) N 0 0 min 0 W/m 5,9 C 7,8 C 0,0 km/h (0 Bft)
27.05.2020 01:50 7,8 C 87 % 1034,0 hPa 0,0 l/m 0,0 km/h (0 Bft) N 0 0 min 0 W/m 5,8 C 7,8 C 0,0 km/h (0 Bft)
27.05.2020 01:45 7,9 C 87 % 1034,0 hPa 0,0 l/m 0,0 km/h (0 Bft) N 0 0 min 0 W/m 5,9 C 7,9 C 0,0 km/h (0 Bft)
27.05.2020 01:40 8,0 C 87 % 1034,0 hPa 0,0 l/m 0,0 km/h (0 Bft) N 0 0 min 0 W/m 6,0 C 8,0 C 0,0 km/h (0 Bft)
27.05.2020 01:35 8,1 C 87 % 1034,0 hPa 0,0 l/m 0,0 km/h (0 Bft) N 0 0 min 0 W/m 6,1 C 8,1 C 0,0 km/h (0 Bft)
27.05.2020 01:30 8,3 C 87 % 1034,1 hPa 0,0 l/m 0,0 km/h (0 Bft) N 0 0 min 0 W/m 6,3 C 8,3 C 0,0 km/h (0 Bft)
27.05.2020 01:25 8,4 C 86 % 1034,1 hPa 0,0 l/m 0,0 km/h (0 Bft) N 0 0 min 0 W/m 6,2 C 8,4 C 0,0 km/h (0 Bft)
27.05.2020 01:20 8,5 C 86 % 1034,0 hPa 0,0 l/m 0,0 km/h (0 Bft) N 0 0 min 0 W/m 6,3 C 8,5 C 0,0 km/h (0 Bft)
27.05.2020 01:15 8,6 C 86 % 1034,0 hPa 0,0 l/m 0,0 km/h (0 Bft) N 0 0 min 0 W/m 6,4 C 8,6 C 0,0 km/h (0 Bft)
27.05.2020 01:10 8,7 C 86 % 1034,1 hPa 0,0 l/m 0,0 km/h (0 Bft) N 0 0 min 0 W/m 6,5 C 8,7 C 0,0 km/h (0 Bft)
27.05.2020 01:05 8,7 C 85 % 1034,1 hPa 0,0 l/m 0,0 km/h (0 Bft) N 0 0 min 0 W/m 6,3 C 8,7 C 0,0 km/h (0 Bft)
27.05.2020 01:00 8,8 C 86 % 1034,2 hPa 0,0 l/m 0,0 km/h (0 Bft) N 0 0 min 0 W/m 6,6 C 8,8 C 0,0 km/h (0 Bft)
27.05.2020 00:55 8,9 C 86 % 1034,1 hPa 0,0 l/m 0,0 km/h (0 Bft) N 0 0 min 0 W/m 6,7 C 8,9 C 0,0 km/h (0 Bft)
27.05.2020 00:50 9,0 C 85 % 1034,1 hPa 0,0 l/m 0,0 km/h (0 Bft) N 0 0 min 0 W/m 6,6 C 9,0 C 0,0 km/h (0 Bft)
27.05.2020 00:45 9,1 C 85 % 1034,1 hPa 0,0 l/m 0,0 km/h (0 Bft) N 0 0 min 0 W/m 6,7 C 9,1 C 0,0 km/h (0 Bft)
27.05.2020 00:40 9,3 C 85 % 1034,0 hPa 0,0 l/m 0,0 km/h (0 Bft) N 0 0 min 0 W/m 6,9 C 9,3 C 0,0 km/h (0 Bft)
27.05.2020 00:35 9,3 C 85 % 1034,1 hPa 0,0 l/m 0,0 km/h (0 Bft) N 0 0 min 0 W/m 6,9 C 9,3 C 0,0 km/h (0 Bft)
27.05.2020 00:30 9,4 C 84 % 1034,1 hPa 0,0 l/m 0,0 km/h (0 Bft) N 0 0 min 0 W/m 6,8 C 9,4 C 0,0 km/h (0 Bft)
27.05.2020 00:25 9,5 C 84 % 1034,1 hPa 0,0 l/m 0,0 km/h (0 Bft) N 0 0 min 0 W/m 6,9 C 9,5 C 0,0 km/h (0 Bft)
27.05.2020 00:20 9,6 C 84 % 1034,1 hPa 0,0 l/m 0,0 km/h (0 Bft) N 0 0 min 0 W/m 7,0 C 9,6 C 0,0 km/h (0 Bft)
27.05.2020 00:15 9,7 C 83 % 1034,1 hPa 0,0 l/m 0,0 km/h (0 Bft) N 0 0 min 0 W/m 7,0 C 9,7 C 0,0 km/h (0 Bft)
27.05.2020 00:10 9,8 C 83 % 1034,1 hPa 0,0 l/m 0,0 km/h (0 Bft) N 0 0 min 0 W/m 7,1 C 9,8 C 0,0 km/h (0 Bft)
27.05.2020 00:05 9,9 C 83 % 1034,1 hPa 0,0 l/m 0,0 km/h (0 Bft) N 0 0 min 0 W/m 7,2 C 9,9 C 0,0 km/h (0 Bft)
27.05.2020 00:00 9,9 C 82 % 1034,1 hPa 0,0 l/m 0,0 km/h (0 Bft) N 0 0 min 0 W/m 7,0 C 9,9 C 0,0 km/h (0 Bft)
26.05.2020 23:55 10,0 C 82 % 1034,1 hPa 0,0 l/m 0,0 km/h (0 Bft) N 0 0 min 0 W/m 7,1 C 10,0 C 0,0 km/h (0 Bft)
26.05.2020 23:50 10,1 C 81 % 1034,1 hPa 0,0 l/m 0,0 km/h (0 Bft) N 0 0 min 0 W/m 7,0 C 10,1 C 0,0 km/h (0 Bft)
26.05.2020 23:45 10,2 C 81 % 1034,1 hPa 0,0 l/m 0,0 km/h (0 Bft) N 0 0 min 0 W/m 7,1 C 10,2 C 0,0 km/h (0 Bft)
26.05.2020 23:40 10,3 C 81 % 1034,1 hPa 0,0 l/m 0,0 km/h (0 Bft) N 0 0 min 0 W/m 7,2 C 10,3 C 0,0 km/h (0 Bft)
26.05.2020 23:35 10,4 C 80 % 1034,2 hPa 0,0 l/m 0,0 km/h (0 Bft) N 0 0 min 0 W/m 7,1 C 10,4 C 0,0 km/h (0 Bft)
26.05.2020 23:30 10,6 C 79 % 1034,1 hPa 0,0 l/m 0,0 km/h (0 Bft) N 0 0 min 0 W/m 7,1 C 10,6 C 0,0 km/h (0 Bft)
26.05.2020 23:25 10,9 C 78 % 1034,1 hPa 0,0 l/m 0,0 km/h (0 Bft) N 0 0 min 0 W/m 7,2 C 10,9 C 0,0 km/h (0 Bft)
26.05.2020 23:20 11,1 C 78 % 1034,1 hPa 0,0 l/m 0,0 km/h (0 Bft) N 0 0 min 0 W/m 7,4 C 11,1 C 0,0 km/h (0 Bft)
26.05.2020 23:15 11,3 C 77 % 1034,1 hPa 0,0 l/m 0,0 km/h (0 Bft) N 0 0 min 0 W/m 7,4 C 11,3 C 0,0 km/h (0 Bft)
26.05.2020 23:10 11,6 C 77 % 1034,0 hPa 0,0 l/m 0,0 km/h (0 Bft) N 0 0 min 0 W/m 7,7 C 11,6 C 0,0 km/h (0 Bft)
26.05.2020 23:05 11,8 C 75 % 1034,1 hPa 0,0 l/m 0,0 km/h (0 Bft) N 0 0 min 0 W/m 7,5 C 11,8 C 0,0 km/h (0 Bft)
26.05.2020 23:00 12,1 C 74 % 1034,0 hPa 0,0 l/m 0,0 km/h (0 Bft) O-SO 117 0 min 0 W/m 7,6 C 12,1 C 0,0 km/h (0 Bft)
26.05.2020 22:55 12,4 C 74 % 1034,0 hPa 0,0 l/m 0,0 km/h (0 Bft) O-SO 117 0 min 0 W/m 7,9 C 12,4 C 0,0 km/h (0 Bft)
26.05.2020 22:50 12,7 C 74 % 1034,0 hPa 0,0 l/m 0,0 km/h (0 Bft) O-SO 117 0 min 0 W/m 8,2 C 12,7 C 0,0 km/h (0 Bft)
26.05.2020 22:45 12,8 C 73 % 1034,0 hPa 0,0 l/m 0,0 km/h (0 Bft) O-SO 117 0 min 0 W/m 8,1 C 12,8 C 0,0 km/h (0 Bft)
26.05.2020 22:40 12,9 C 73 % 1034,0 hPa 0,0 l/m 0,0 km/h (0 Bft) O-SO 117 0 min 0 W/m 8,2 C 12,9 C 0,0 km/h (0 Bft)
26.05.2020 22:35 13,1 C 72 % 1033,9 hPa 0,0 l/m 0,0 km/h (0 Bft) O-SO 117 0 min 0 W/m 8,2 C 13,1 C 0,0 km/h (0 Bft)
26.05.2020 22:30 13,2 C 71 % 1033,8 hPa 0,0 l/m 0,0 km/h (0 Bft) O-SO 117 0 min 0 W/m 8,1 C 13,2 C 0,0 km/h (0 Bft)
26.05.2020 22:25 13,3 C 70 % 1033,8 hPa 0,0 l/m 0,0 km/h (0 Bft) O-SO 117 0 min 0 W/m 7,9 C 13,3 C 0,0 km/h (0 Bft)
26.05.2020 22:20 13,4 C 69 % 1033,8 hPa 0,0 l/m 0,0 km/h (0 Bft) O-SO 117 0 min 0 W/m 7,8 C 13,4 C 0,0 km/h (0 Bft)
26.05.2020 22:15 13,5 C 69 % 1033,8 hPa 0,0 l/m 0,0 km/h (0 Bft) O-SO 117 0 min 0 W/m 7,9 C 13,5 C 0,0 km/h (0 Bft)
26.05.2020 22:10 13,6 C 69 % 1033,8 hPa 0,0 l/m 0,0 km/h (0 Bft) O-SO 117 0 min 0 W/m 8,0 C 13,6 C 0,0 km/h (0 Bft)
26.05.2020 22:05 13,6 C 68 % 1033,7 hPa 0,0 l/m 0,0 km/h (0 Bft) O-SO 117 0 min 0 W/m 7,8 C 13,6 C 0,0 km/h (0 Bft)
26.05.2020 22:00 13,6 C 68 % 1033,8 hPa 0,0 l/m 0,7 km/h (0 Bft) O-SO 117 0 min 0 W/m 7,8 C 13,6 C 4,8 km/h (1 Bft)
26.05.2020 21:55 13,6 C 69 % 1033,8 hPa 0,0 l/m 1,8 km/h (1 Bft) O-SO 116 0 min 0 W/m 8,0 C 13,6 C 4,8 km/h (1 Bft)
26.05.2020 21:50 13,9 C 68 % 1033,8 hPa 0,0 l/m 0,0 km/h (0 Bft) O-SO 116 0 min 0 W/m 8,1 C 13,9 C 0,0 km/h (0 Bft)
26.05.2020 21:45 14,1 C 68 % 1033,8 hPa 0,0 l/m 0,0 km/h (0 Bft) O-SO 115 0 min 0 W/m 8,3 C 14,1 C 0,0 km/h (0 Bft)
26.05.2020 21:40 14,2 C 67 % 1033,6 hPa 0,0 l/m 0,5 km/h (0 Bft) O-SO 116 0 min 0 W/m 8,2 C 14,2 C 4,8 km/h (1 Bft)
26.05.2020 21:35 14,4 C 67 % 1033,6 hPa 0,0 l/m 0,0 km/h (0 Bft) O-SO 116 0 min 0 W/m 8,4 C 14,4 C 0,0 km/h (0 Bft)
26.05.2020 21:30 14,5 C 66 % 1033,6 hPa 0,0 l/m 0,7 km/h (0 Bft) O-SO 116 0 min 0 W/m 8,2 C 14,5 C 4,8 km/h (1 Bft)
26.05.2020 21:25 14,7 C 65 % 1033,5 hPa 0,0 l/m 0,8 km/h (0 Bft) O-SO 115 0 min 0 W/m 8,2 C 14,7 C 4,8 km/h (1 Bft)
26.05.2020 21:20 15,0 C 65 % 1033,5 hPa 0,0 l/m 0,0 km/h (0 Bft) O-SO 116 0 min 0 W/m 8,5 C 15,0 C 1,6 km/h (1 Bft)
26.05.2020 21:15 15,2 C 64 % 1033,5 hPa 0,0 l/m 0,0 km/h (0 Bft) O-SO 116 0 min 5 W/m 8,4 C 15,2 C 0,0 km/h (0 Bft)
26.05.2020 21:10 15,4 C 63 % 1033,4 hPa 0,0 l/m 0,2 km/h (0 Bft) O-SO 115 0 min 7 W/m 8,4 C 15,4 C 3,2 km/h (1 Bft)
26.05.2020 21:05 15,4 C 61 % 1033,4 hPa 0,0 l/m 0,0 km/h (0 Bft) O-SO 115 0 min 9 W/m 7,9 C 15,4 C 0,0 km/h (0 Bft)
26.05.2020 21:00 15,6 C 61 % 1033,4 hPa 0,0 l/m 0,1 km/h (0 Bft) O-SO 115 0 min 12 W/m 8,1 C 15,6 C 3,2 km/h (1 Bft)
26.05.2020 20:55 15,7 C 63 % 1033,3 hPa 0,0 l/m 0,0 km/h (0 Bft) O-SO 115 0 min 18 W/m 8,7 C 15,7 C 0,0 km/h (0 Bft)
26.05.2020 20:50 15,9 C 63 % 1033,4 hPa 0,0 l/m 0,3 km/h (0 Bft) O-SO 115 0 min 19 W/m 8,9 C 15,9 C 4,8 km/h (1 Bft)
26.05.2020 20:45 16,3 C 61 % 1033,3 hPa 0,0 l/m 0,0 km/h (0 Bft) O-SO 115 0 min 21 W/m 8,8 C 16,3 C 1,6 km/h (1 Bft)
26.05.2020 20:40 16,8 C 60 % 1033,3 hPa 0,0 l/m 0,0 km/h (0 Bft) O-SO 115 0 min 21 W/m 9,0 C 16,8 C 0,0 km/h (0 Bft)
26.05.2020 20:35 17,2 C 57 % 1033,3 hPa 0,0 l/m 0,0 km/h (0 Bft) O-SO 115 0 min 23 W/m 8,6 C 17,2 C 0,0 km/h (0 Bft)
26.05.2020 20:30 17,6 C 53 % 1033,2 hPa 0,0 l/m 0,0 km/h (0 Bft) O-SO 115 0 min 23 W/m 7,9 C 17,6 C 0,0 km/h (0 Bft)
26.05.2020 20:25 17,8 C 50 % 1033,2 hPa 0,0 l/m 0,0 km/h (0 Bft) O-SO 115 0 min 23 W/m 7,2 C 17,8 C 1,6 km/h (1 Bft)
26.05.2020 20:20 18,1 C 51 % 1033,2 hPa 0,0 l/m 0,1 km/h (0 Bft) O-SO 115 0 min 25 W/m 7,8 C 18,1 C 3,2 km/h (1 Bft)
26.05.2020 20:15 18,3 C 49 % 1033,2 hPa 0,0 l/m 0,2 km/h (0 Bft) O-SO 115 0 min 33 W/m 7,4 C 18,3 C 4,8 km/h (1 Bft)
26.05.2020 20:10 18,6 C 49 % 1033,3 hPa 0,0 l/m 0,0 km/h (0 Bft) O-SO 114 0 min 39 W/m 7,7 C 18,6 C 0,0 km/h (0 Bft)
26.05.2020 20:05 18,8 C 46 % 1033,3 hPa 0,0 l/m 0,0 km/h (0 Bft) O-SO 115 0 min 40 W/m 6,9 C 18,8 C 0,0 km/h (0 Bft)
26.05.2020 20:00 18,9 C 46 % 1033,3 hPa 0,0 l/m 0,0 km/h (0 Bft) O-SO 115 0 min 98 W/m 7,0 C 18,9 C 0,0 km/h (0 Bft)
26.05.2020 19:55 19,0 C 48 % 1033,3 hPa 0,0 l/m 0,0 km/h (0 Bft) O-SO 114 0 min 113 W/m 7,7 C 19,0 C 0,0 km/h (0 Bft)
26.05.2020 19:50 19,1 C 47 % 1033,3 hPa 0,0 l/m 0,0 km/h (0 Bft) O-SO 114 0 min 137 W/m 7,5 C 19,1 C 1,6 km/h (1 Bft)
26.05.2020 19:45 19,2 C 46 % 1033,3 hPa 0,0 l/m 0,0 km/h (0 Bft) O-SO 115 0 min 141 W/m 7,3 C 19,2 C 0,0 km/h (0 Bft)
26.05.2020 19:40 19,4 C 46 % 1033,3 hPa 0,0 l/m 1,9 km/h (1 Bft) O-SO 115 5 min 172 W/m 7,5 C 19,4 C 9,7 km/h (2 Bft)
26.05.2020 19:35 19,6 C 45 % 1033,3 hPa 0,0 l/m 0,6 km/h (0 Bft) O-SO 119 5 min 216 W/m 7,3 C 19,6 C 8,0 km/h (2 Bft)
26.05.2020 19:30 19,7 C 45 % 1033,3 hPa 0,0 l/m 0,0 km/h (0 Bft) O-NO 63 5 min 227 W/m 7,4 C 19,7 C 1,6 km/h (1 Bft)
26.05.2020 19:25 19,8 C 46 % 1033,3 hPa 0,0 l/m 0,0 km/h (0 Bft) N-NO 25 5 min 227 W/m 7,8 C 19,8 C 1,6 km/h (1 Bft)
26.05.2020 19:20 19,8 C 46 % 1033,4 hPa 0,0 l/m 0,0 km/h (0 Bft) N-NO 25 5 min 243 W/m 7,8 C 19,8 C 0,0 km/h (0 Bft)
26.05.2020 19:15 19,8 C 48 % 1033,3 hPa 0,0 l/m 0,0 km/h (0 Bft) N-NO 25 0 min 132 W/m 8,5 C 19,8 C 0,0 km/h (0 Bft)
26.05.2020 19:10 19,5 C 48 % 1033,4 hPa 0,0 l/m 0,0 km/h (0 Bft) N-NO 25 5 min 285 W/m 8,2 C 19,5 C 0,0 km/h (0 Bft)
26.05.2020 19:05 19,2 C 51 % 1033,4 hPa 0,0 l/m 0,0 km/h (0 Bft) N-NO 25 5 min 255 W/m 8,8 C 19,2 C 0,0 km/h (0 Bft)
26.05.2020 19:00 19,1 C 48 % 1033,3 hPa 0,0 l/m 0,2 km/h (0 Bft) N-NO 25 0 min 130 W/m 7,8 C 19,1 C 4,8 km/h (1 Bft)
26.05.2020 18:55 19,1 C 49 % 1033,3 hPa 0,0 l/m 0,0 km/h (0 Bft) O-SO 103 0 min 118 W/m 8,1 C 19,1 C 0,0 km/h (0 Bft)
26.05.2020 18:50 19,2 C 47 % 1033,3 hPa 0,0 l/m 0,0 km/h (0 Bft) O-SO 103 0 min 100 W/m 7,6 C 19,2 C 0,0 km/h (0 Bft)
26.05.2020 18:45 19,3 C 48 % 1033,3 hPa 0,0 l/m 0,0 km/h (0 Bft) O-SO 103 0 min 105 W/m 8,0 C 19,3 C 0,0 km/h (0 Bft)
26.05.2020 18:40 19,6 C 46 % 1033,3 hPa 0,0 l/m 0,0 km/h (0 Bft) O-SO 103 0 min 91 W/m 7,7 C 19,6 C 0,0 km/h (0 Bft)
26.05.2020 18:35 19,9 C 46 % 1033,3 hPa 0,0 l/m 0,0 km/h (0 Bft) O-SO 103 0 min 98 W/m 7,9 C 19,9 C 1,6 km/h (1 Bft)
26.05.2020 18:30 20,3 C 46 % 1033,3 hPa 0,0 l/m 0,0 km/h (0 Bft) O-SO 103 0 min 111 W/m 8,3 C 20,3 C 0,0 km/h (0 Bft)
26.05.2020 18:25 20,6 C 45 % 1033,3 hPa 0,0 l/m 0,0 km/h (0 Bft) O-SO 103 0 min 113 W/m 8,2 C 20,6 C 1,6 km/h (1 Bft)
26.05.2020 18:20 20,6 C 44 % 1033,3 hPa 0,0 l/m 0,3 km/h (0 Bft) O-SO 102 5 min 350 W/m 7,9 C 20,6 C 4,8 km/h (1 Bft)
26.05.2020 18:15 20,4 C 46 % 1033,3 hPa 0,0 l/m 0,0 km/h (0 Bft) O-SO 103 5 min 434 W/m 8,4 C 20,4 C 1,6 km/h (1 Bft)
26.05.2020 18:10 19,9 C 47 % 1033,4 hPa 0,0 l/m 0,0 km/h (0 Bft) O-SO 103 5 min 475 W/m 8,3 C 19,9 C 1,6 km/h (1 Bft)
26.05.2020 18:05 19,6 C 47 % 1033,4 hPa 0,0 l/m 0,0 km/h (0 Bft) O-SO 103 5 min 225 W/m 8,0 C 19,6 C 0,0 km/h (0 Bft)
26.05.2020 18:00 19,4 C 49 % 1033,4 hPa 0,0 l/m 0,0 km/h (0 Bft) O-SO 102 5 min 169 W/m 8,4 C 19,4 C 0,0 km/h (0 Bft)
26.05.2020 17:55 19,7 C 46 % 1033,5 hPa 0,0 l/m 0,0 km/h (0 Bft) O-SO 103 0 min 141 W/m 7,8 C 19,7 C 1,6 km/h (1 Bft)
26.05.2020 17:50 19,9 C 47 % 1033,4 hPa 0,0 l/m 0,0 km/h (0 Bft) O-SO 102 0 min 121 W/m 8,3 C 19,9 C 0,0 km/h (0 Bft)
26.05.2020 17:45 20,1 C 47 % 1033,4 hPa 0,0 l/m 0,0 km/h (0 Bft) O-SO 102 5 min 153 W/m 8,4 C 20,1 C 0,0 km/h (0 Bft)
26.05.2020 17:40 20,2 C 46 % 1033,4 hPa 0,0 l/m 0,0 km/h (0 Bft) O-SO 102 5 min 181 W/m 8,2 C 20,2 C 0,0 km/h (0 Bft)
26.05.2020 17:35 20,1 C 48 % 1033,4 hPa 0,0 l/m 0,0 km/h (0 Bft) O-SO 102 5 min 575 W/m 8,7 C 20,1 C 1,6 km/h (1 Bft)
26.05.2020 17:30 19,6 C 46 % 1033,4 hPa 0,0 l/m 0,0 km/h (0 Bft) O-SO 102 5 min 673 W/m 7,7 C 19,6 C 0,0 km/h (0 Bft)
26.05.2020 17:25 19,3 C 50 % 1033,4 hPa 0,0 l/m 0,0 km/h (0 Bft) O-SO 102 5 min 248 W/m 8,6 C 19,3 C 0,0 km/h (0 Bft)
26.05.2020 17:20 19,3 C 48 % 1033,4 hPa 0,0 l/m 0,0 km/h (0 Bft) O-SO 102 5 min 232 W/m 8,0 C 19,3 C 0,0 km/h (0 Bft)
26.05.2020 17:15 19,3 C 50 % 1033,4 hPa 0,0 l/m 0,7 km/h (0 Bft) O-SO 102 5 min 239 W/m 8,6 C 19,3 C 4,8 km/h (1 Bft)
26.05.2020 17:10 19,7 C 47 % 1033,4 hPa 0,0 l/m 5,9 km/h (2 Bft) O 101 5 min 223 W/m 8,1 C 19,7 C 11,3 km/h (2 Bft)
26.05.2020 17:05 20,3 C 47 % 1033,4 hPa 0,0 l/m 3,0 km/h (1 Bft) O-SO 121 5 min 272 W/m 8,6 C 20,3 C 12,9 km/h (3 Bft)
26.05.2020 17:00 21,1 C 45 % 1033,4 hPa 0,0 l/m 1,1 km/h (1 Bft) O 87 5 min 276 W/m 8,7 C 21,1 C 6,4 km/h (2 Bft)
26.05.2020 16:55 21,4 C 42 % 1033,5 hPa 0,0 l/m 0,0 km/h (0 Bft) N-NW 342 5 min 703 W/m 8,0 C 21,4 C 1,6 km/h (1 Bft)
26.05.2020 16:50 21,1 C 48 % 1033,5 hPa 0,0 l/m 0,0 km/h (0 Bft) N-NW 342 5 min 772 W/m 9,7 C 21,1 C 1,6 km/h (1 Bft)
26.05.2020 16:45 20,6 C 46 % 1033,5 hPa 0,0 l/m 0,0 km/h (0 Bft) N-NW 340 5 min 742 W/m 8,6 C 20,6 C 1,6 km/h (1 Bft)
26.05.2020 16:40 20,1 C 46 % 1033,5 hPa 0,0 l/m 0,5 km/h (0 Bft) N-NW 341 5 min 744 W/m 8,1 C 20,1 C 6,4 km/h (2 Bft)
26.05.2020 16:35 19,6 C 48 % 1033,5 hPa 0,0 l/m 0,0 km/h (0 Bft) O-SO 111 5 min 742 W/m 8,3 C 19,6 C 1,6 km/h (1 Bft)
26.05.2020 16:30 19,5 C 48 % 1033,6 hPa 0,0 l/m 0,0 km/h (0 Bft) O-SO 110 5 min 243 W/m 8,2 C 19,5 C 0,0 km/h (0 Bft)
26.05.2020 16:25 19,5 C 49 % 1033,6 hPa 0,0 l/m 0,0 km/h (0 Bft) O-SO 110 5 min 258 W/m 8,5 C 19,5 C 0,0 km/h (0 Bft)
26.05.2020 16:20 19,5 C 48 % 1033,6 hPa 0,0 l/m 0,0 km/h (0 Bft) O-SO 111 5 min 253 W/m 8,2 C 19,5 C 0,0 km/h (0 Bft)
26.05.2020 16:15 19,4 C 48 % 1033,6 hPa 0,0 l/m 0,0 km/h (0 Bft) O-SO 111 5 min 271 W/m 8,1 C 19,4 C 0,0 km/h (0 Bft)
26.05.2020 16:10 19,3 C 50 % 1033,6 hPa 0,0 l/m 0,0 km/h (0 Bft) O-SO 110 5 min 543 W/m 8,6 C 19,3 C 0,0 km/h (0 Bft)
26.05.2020 16:05 19,1 C 50 % 1033,7 hPa 0,0 l/m 0,0 km/h (0 Bft) O-SO 111 5 min 290 W/m 8,4 C 19,1 C 0,0 km/h (0 Bft)
26.05.2020 16:00 19,1 C 50 % 1033,7 hPa 0,0 l/m 0,0 km/h (0 Bft) O-SO 111 5 min 251 W/m 8,4 C 19,1 C 0,0 km/h (0 Bft)
26.05.2020 15:55 19,1 C 48 % 1033,6 hPa 0,0 l/m 0,0 km/h (0 Bft) O-SO 111 5 min 236 W/m 7,8 C 19,1 C 0,0 km/h (0 Bft)
26.05.2020 15:50 19,3 C 49 % 1033,7 hPa 0,0 l/m 0,0 km/h (0 Bft) O-SO 111 5 min 223 W/m 8,3 C 19,3 C 0,0 km/h (0 Bft)
26.05.2020 15:45 19,4 C 49 % 1033,7 hPa 0,0 l/m 0,1 km/h (0 Bft) O-SO 111 5 min 230 W/m 8,4 C 19,4 C 3,2 km/h (1 Bft)
26.05.2020 15:40 19,6 C 48 % 1033,6 hPa 0,0 l/m 0,9 km/h (0 Bft) O-SO 111 5 min 269 W/m 8,3 C 19,6 C 9,7 km/h (2 Bft)
26.05.2020 15:35 20,0 C 46 % 1033,6 hPa 0,0 l/m 1,9 km/h (1 Bft) O-SO 111 5 min 316 W/m 8,0 C 20,0 C 11,3 km/h (2 Bft)
26.05.2020 15:30 20,1 C 46 % 1033,6 hPa 0,0 l/m 2,7 km/h (1 Bft) S 180 5 min 1035 W/m 8,1 C 20,1 C 14,5 km/h (3 Bft)
26.05.2020 15:25 19,9 C 47 % 1033,6 hPa 0,0 l/m 0,0 km/h (0 Bft) O-NO 76 5 min 446 W/m 8,3 C 19,9 C 1,6 km/h (1 Bft)
26.05.2020 15:20 19,5 C 52 % 1033,7 hPa 0,0 l/m 0,0 km/h (0 Bft) O-NO 78 5 min 960 W/m 9,4 C 19,5 C 0,0 km/h (0 Bft)
26.05.2020 15:15 19,2 C 50 % 1033,7 hPa 0,0 l/m 0,4 km/h (0 Bft) O-NO 78 5 min 336 W/m 8,5 C 19,2 C 6,4 km/h (2 Bft)
26.05.2020 15:10 19,3 C 50 % 1033,7 hPa 0,0 l/m 0,0 km/h (0 Bft) N-NW 331 5 min 288 W/m 8,6 C 19,3 C 0,0 km/h (0 Bft)
26.05.2020 15:05 19,4 C 51 % 1033,7 hPa 0,0 l/m 0,0 km/h (0 Bft) N-NW 332 5 min 306 W/m 9,0 C 19,4 C 0,0 km/h (0 Bft)
26.05.2020 15:00 19,5 C 49 % 1033,7 hPa 0,0 l/m 0,3 km/h (0 Bft) N-NW 331 5 min 299 W/m 8,5 C 19,5 C 6,4 km/h (2 Bft)
26.05.2020 14:55 19,5 C 48 % 1033,7 hPa 0,0 l/m 0,9 km/h (0 Bft) N-NW 333 5 min 318 W/m 8,2 C 19,5 C 8,0 km/h (2 Bft)
26.05.2020 14:50 19,4 C 50 % 1033,7 hPa 0,0 l/m 0,9 km/h (0 Bft) S-SO 151 5 min 364 W/m 8,7 C 19,4 C 6,4 km/h (2 Bft)
26.05.2020 14:45 19,2 C 54 % 1033,7 hPa 0,0 l/m 3,4 km/h (1 Bft) S-SO 150 5 min 670 W/m 9,7 C 19,2 C 14,5 km/h (3 Bft)
26.05.2020 14:40 19,0 C 52 % 1033,7 hPa 0,0 l/m 0,3 km/h (0 Bft) O-SO 119 5 min 483 W/m 8,9 C 19,0 C 6,4 km/h (2 Bft)
26.05.2020 14:35 18,9 C 54 % 1033,7 hPa 0,0 l/m 1,4 km/h (1 Bft) O-SO 119 5 min 740 W/m 9,4 C 18,9 C 11,3 km/h (2 Bft)
26.05.2020 14:30 18,8 C 54 % 1033,7 hPa 0,0 l/m 1,0 km/h (0 Bft) W-NW 300 5 min 552 W/m 9,3 C 18,8 C 8,0 km/h (2 Bft)
26.05.2020 14:25 18,8 C 54 % 1033,8 hPa 0,0 l/m 0,3 km/h (0 Bft) N-NW 338 5 min 413 W/m 9,3 C 18,8 C 4,8 km/h (1 Bft)
26.05.2020 14:20 18,8 C 54 % 1033,8 hPa 0,0 l/m 1,9 km/h (1 Bft) SO 134 5 min 406 W/m 9,3 C 18,8 C 9,7 km/h (2 Bft)
26.05.2020 14:15 18,8 C 54 % 1033,8 hPa 0,0 l/m 1,6 km/h (1 Bft) SO 126 5 min 376 W/m 9,3 C 18,8 C 8,0 km/h (2 Bft)
26.05.2020 14:10 18,8 C 54 % 1033,8 hPa 0,0 l/m 0,0 km/h (0 Bft) S-SW 202 5 min 443 W/m 9,3 C 18,8 C 0,0 km/h (0 Bft)
26.05.2020 14:05 18,8 C 54 % 1033,9 hPa 0,0 l/m 0,7 km/h (0 Bft) S-SO 165 5 min 466 W/m 9,3 C 18,8 C 8,0 km/h (2 Bft)
26.05.2020 14:00 18,8 C 54 % 1033,9 hPa 0,0 l/m 1,9 km/h (1 Bft) S 191 5 min 343 W/m 9,3 C 18,8 C 11,3 km/h (2 Bft)
26.05.2020 13:55 18,7 C 53 % 1033,9 hPa 0,0 l/m 2,5 km/h (1 Bft) O-SO 107 5 min 429 W/m 8,9 C 18,7 C 11,3 km/h (2 Bft)
26.05.2020 13:50 18,8 C 54 % 1033,9 hPa 0,0 l/m 2,3 km/h (1 Bft) S 171 5 min 429 W/m 9,3 C 18,8 C 11,3 km/h (2 Bft)
26.05.2020 13:45 19,1 C 56 % 1033,9 hPa 0,0 l/m 3,7 km/h (1 Bft) O-SO 107 5 min 436 W/m 10,1 C 19,1 C 9,7 km/h (2 Bft)
26.05.2020 13:40 19,2 C 54 % 1033,9 hPa 0,0 l/m 6,2 km/h (2 Bft) S-SO 160 5 min 1123 W/m 9,7 C 19,2 C 16,1 km/h (3 Bft)
26.05.2020 13:35 18,8 C 55 % 1033,9 hPa 0,0 l/m 0,3 km/h (0 Bft) O 90 5 min 1120 W/m 9,6 C 18,8 C 6,4 km/h (2 Bft)
26.05.2020 13:30 18,3 C 53 % 1034,0 hPa 0,0 l/m 0,0 km/h (0 Bft) N-NO 32 5 min 1081 W/m 8,6 C 18,3 C 1,6 km/h (1 Bft)
26.05.2020 13:25 18,2 C 56 % 1034,0 hPa 0,0 l/m 0,5 km/h (0 Bft) O-SO 113 5 min 295 W/m 9,3 C 18,2 C 6,4 km/h (2 Bft)
26.05.2020 13:20 18,1 C 55 % 1034,1 hPa 0,0 l/m 0,0 km/h (0 Bft) O-SO 113 5 min 923 W/m 8,9 C 18,1 C 0,0 km/h (0 Bft)
26.05.2020 13:15 17,9 C 56 % 1034,0 hPa 0,0 l/m 0,6 km/h (0 Bft) O-SO 113 5 min 396 W/m 9,0 C 17,9 C 4,8 km/h (1 Bft)
26.05.2020 13:10 17,8 C 57 % 1034,1 hPa 0,0 l/m 0,4 km/h (0 Bft) O-SO 113 5 min 443 W/m 9,2 C 17,8 C 4,8 km/h (1 Bft)
26.05.2020 13:05 17,8 C 54 % 1034,1 hPa 0,0 l/m 0,6 km/h (0 Bft) O-SO 110 5 min 1097 W/m 8,4 C 17,8 C 3,2 km/h (1 Bft)
26.05.2020 13:00 18,0 C 57 % 1034,2 hPa 0,0 l/m 6,8 km/h (2 Bft) O-SO 111 5 min 320 W/m 9,4 C 17,8 C 12,9 km/h (3 Bft)
26.05.2020 12:55 18,2 C 57 % 1034,2 hPa 0,0 l/m 2,0 km/h (1 Bft) S 178 5 min 555 W/m 9,5 C 18,2 C 9,7 km/h (2 Bft)
26.05.2020 12:50 18,1 C 57 % 1034,2 hPa 0,0 l/m 0,6 km/h (0 Bft) W 273 5 min 564 W/m 9,4 C 18,1 C 9,7 km/h (2 Bft)
26.05.2020 12:45 17,9 C 57 % 1034,2 hPa 0,0 l/m 1,6 km/h (1 Bft) N-NW 329 5 min 1086 W/m 9,3 C 17,9 C 6,4 km/h (2 Bft)
26.05.2020 12:40 17,7 C 58 % 1034,3 hPa 0,0 l/m 0,1 km/h (0 Bft) SO 128 5 min 519 W/m 9,3 C 17,7 C 3,2 km/h (1 Bft)
26.05.2020 12:35 17,6 C 58 % 1034,3 hPa 0,0 l/m 0,0 km/h (0 Bft) SO 128 5 min 279 W/m 9,2 C 17,6 C 0,0 km/h (0 Bft)
26.05.2020 12:30 17,5 C 58 % 1034,3 hPa 0,0 l/m 0,0 km/h (0 Bft) SO 128 5 min 290 W/m 9,1 C 17,5 C 0,0 km/h (0 Bft)
26.05.2020 12:25 17,4 C 57 % 1034,4 hPa 0,0 l/m 0,3 km/h (0 Bft) SO 128 5 min 388 W/m 8,8 C 17,4 C 4,8 km/h (1 Bft)
26.05.2020 12:20 17,4 C 60 % 1034,3 hPa 0,0 l/m 5,1 km/h (1 Bft) SO 128 5 min 362 W/m 9,6 C 17,4 C 11,3 km/h (2 Bft)
26.05.2020 12:15 17,8 C 58 % 1034,4 hPa 0,0 l/m 4,6 km/h (1 Bft) S-SO 160 5 min 301 W/m 9,4 C 17,8 C 11,3 km/h (2 Bft)
26.05.2020 12:10 17,7 C 58 % 1034,4 hPa 0,0 l/m 1,5 km/h (1 Bft) SW 215 5 min 914 W/m 9,3 C 17,7 C 6,4 km/h (2 Bft)
26.05.2020 12:05 17,3 C 62 % 1034,4 hPa 0,0 l/m 0,4 km/h (0 Bft) SW 232 5 min 1028 W/m 9,9 C 17,3 C 4,8 km/h (1 Bft)
26.05.2020 12:00 17,0 C 59 % 1034,4 hPa 0,0 l/m 0,8 km/h (0 Bft) SW 232 5 min 1007 W/m 8,9 C 17,0 C 11,3 km/h (2 Bft)
26.05.2020 11:55 17,0 C 58 % 1034,3 hPa 0,0 l/m 2,8 km/h (1 Bft) NW 325 5 min 986 W/m 8,7 C 17,0 C 12,9 km/h (3 Bft)
26.05.2020 11:50 17,1 C 57 % 1034,3 hPa 0,0 l/m 4,1 km/h (1 Bft) NW 323 5 min 940 W/m 8,5 C 17,1 C 12,9 km/h (3 Bft)
26.05.2020 11:45 17,0 C 58 % 1034,4 hPa 0,0 l/m 3,8 km/h (1 Bft) W-NW 283 5 min 956 W/m 8,7 C 17,0 C 12,9 km/h (3 Bft)
26.05.2020 11:40 16,9 C 60 % 1034,4 hPa 0,0 l/m 4,1 km/h (1 Bft) NW 316 5 min 932 W/m 9,1 C 16,9 C 16,1 km/h (3 Bft)
26.05.2020 11:35 16,9 C 59 % 1034,4 hPa 0,0 l/m 4,7 km/h (1 Bft) NW 321 5 min 847 W/m 8,8 C 16,9 C 16,1 km/h (3 Bft)
26.05.2020 11:30 16,8 C 59 % 1034,4 hPa 0,0 l/m 5,6 km/h (2 Bft) NW 322 10 min 865 W/m 8,7 C 16,8 C 12,9 km/h (3 Bft)
26.05.2020 11:20 17,3 C 57 % 1034,4 hPa 0,0 l/m 0,0 km/h (0 Bft) S 182 5 min 896 W/m 8,7 C 17,3 C 0,0 km/h (0 Bft)
26.05.2020 11:15 17,3 C 58 % 1034,4 hPa 0,0 l/m 0,1 km/h (0 Bft) S 182 5 min 703 W/m 9,0 C 17,3 C 3,2 km/h (1 Bft)
26.05.2020 11:10 17,3 C 59 % 1034,4 hPa 0,0 l/m 0,0 km/h (0 Bft) W-NW 299 5 min 877 W/m 9,2 C 17,3 C 1,6 km/h (1 Bft)
26.05.2020 11:05 17,2 C 58 % 1034,3 hPa 0,0 l/m 1,6 km/h (1 Bft) W-NW 298 5 min 858 W/m 8,9 C 17,2 C 8,0 km/h (2 Bft)
26.05.2020 11:00 17,0 C 60 % 1034,3 hPa 0,0 l/m 0,0 km/h (0 Bft) N-NW 337 5 min 868 W/m 9,2 C 17,0 C 0,0 km/h (0 Bft)
26.05.2020 10:55 17,0 C 57 % 1034,3 hPa 0,0 l/m 3,8 km/h (1 Bft) N-NW 337 5 min 846 W/m 8,4 C 17,0 C 11,3 km/h (2 Bft)
26.05.2020 10:50 17,2 C 59 % 1034,3 hPa 0,0 l/m 0,0 km/h (0 Bft) O-NO 60 5 min 765 W/m 9,1 C 17,2 C 1,6 km/h (1 Bft)
26.05.2020 10:45 17,3 C 58 % 1034,3 hPa 0,0 l/m 0,3 km/h (0 Bft) O-NO 60 5 min 167 W/m 9,0 C 17,3 C 6,4 km/h (2 Bft)
26.05.2020 10:40 17,2 C 60 % 1034,3 hPa 0,0 l/m 0,3 km/h (0 Bft) SO 141 5 min 911 W/m 9,4 C 17,2 C 6,4 km/h (2 Bft)
26.05.2020 10:35 16,9 C 59 % 1034,3 hPa 0,0 l/m 0,7 km/h (0 Bft) NO 34 5 min 846 W/m 8,8 C 16,9 C 6,4 km/h (2 Bft)
26.05.2020 10:30 16,9 C 57 % 1034,3 hPa 0,0 l/m 2,1 km/h (1 Bft) NW 323 5 min 895 W/m 8,3 C 16,9 C 12,9 km/h (3 Bft)
26.05.2020 10:25 17,1 C 57 % 1034,3 hPa 0,0 l/m 1,4 km/h (1 Bft) N-NW 330 5 min 830 W/m 8,5 C 17,1 C 8,0 km/h (2 Bft)
26.05.2020 10:20 16,8 C 62 % 1034,3 hPa 0,0 l/m 0,0 km/h (0 Bft) W-SW 243 5 min 793 W/m 9,5 C 16,8 C 1,6 km/h (1 Bft)
26.05.2020 10:15 16,4 C 61 % 1034,3 hPa 0,0 l/m 0,0 km/h (0 Bft) NW 324 5 min 842 W/m 8,9 C 16,4 C 0,0 km/h (0 Bft)
26.05.2020 10:10 15,9 C 65 % 1034,3 hPa 0,0 l/m 0,0 km/h (0 Bft) NW 323 5 min 835 W/m 9,3 C 15,9 C 0,0 km/h (0 Bft)
26.05.2020 10:05 15,8 C 61 % 1034,3 hPa 0,0 l/m 2,6 km/h (1 Bft) NW 324 5 min 791 W/m 8,3 C 15,8 C 11,3 km/h (2 Bft)
26.05.2020 10:00 15,7 C 65 % 1034,3 hPa 0,0 l/m 0,6 km/h (0 Bft) S 183 5 min 738 W/m 9,1 C 15,7 C 6,4 km/h (2 Bft)
26.05.2020 09:55 15,6 C 63 % 1034,3 hPa 0,0 l/m 0,0 km/h (0 Bft) S-SW 195 5 min 185 W/m 8,6 C 15,6 C 0,0 km/h (0 Bft)
26.05.2020 09:50 15,3 C 66 % 1034,3 hPa 0,0 l/m 0,0 km/h (0 Bft) S-SW 196 5 min 687 W/m 9,0 C 15,3 C 0,0 km/h (0 Bft)
26.05.2020 09:45 14,9 C 70 % 1034,3 hPa 0,0 l/m 0,7 km/h (0 Bft) S-SW 196 5 min 645 W/m 9,5 C 14,9 C 6,4 km/h (2 Bft)
26.05.2020 09:40 14,3 C 71 % 1034,3 hPa 0,0 l/m 0,0 km/h (0 Bft) W-NW 284 5 min 642 W/m 9,1 C 14,3 C 0,0 km/h (0 Bft)
26.05.2020 09:35 14,0 C 71 % 1034,2 hPa 0,0 l/m 0,1 km/h (0 Bft) W-NW 284 5 min 274 W/m 8,8 C 14,0 C 4,8 km/h (1 Bft)
26.05.2020 09:30 13,8 C 71 % 1034,2 hPa 0,0 l/m 0,0 km/h (0 Bft) W-NW 284 5 min 587 W/m 8,6 C 13,8 C 0,0 km/h (0 Bft)
26.05.2020 09:25 13,6 C 74 % 1034,2 hPa 0,0 l/m 0,2 km/h (0 Bft) W-NW 285 0 min 95 W/m 9,1 C 13,6 C 4,8 km/h (1 Bft)
26.05.2020 09:20 13,5 C 76 % 1034,2 hPa 0,0 l/m 0,2 km/h (0 Bft) W-NW 285 0 min 98 W/m 9,4 C 13,5 C 3,2 km/h (1 Bft)
26.05.2020 09:15 13,3 C 76 % 1034,2 hPa 0,0 l/m 0,3 km/h (0 Bft) W-NW 284 5 min 294 W/m 9,2 C 13,3 C 4,8 km/h (1 Bft)
26.05.2020 09:10 13,1 C 77 % 1034,2 hPa 0,0 l/m 0,4 km/h (0 Bft) W-NW 285 5 min 269 W/m 9,2 C 13,1 C 4,8 km/h (1 Bft)
26.05.2020 09:05 12,9 C 78 % 1034,2 hPa 0,0 l/m 0,3 km/h (0 Bft) W-NW 292 5 min 272 W/m 9,2 C 12,9 C 4,8 km/h (1 Bft)
26.05.2020 09:00 12,8 C 79 % 1034,2 hPa 0,0 l/m 0,2 km/h (0 Bft) W-NW 291 5 min 287 W/m 9,2 C 12,8 C 3,2 km/h (1 Bft)
_ Min-Zeit 05:35 16:55 20:15 - 09:30 - - - - 05:35 05:35 09:30
Minimum _ 5,1 C 42 % 1033,2 hPa - 0,0 km/h (0 Bft) - - - - 3,9 C 5,1 C 0,0 km/h (0 Bft)
_ Max-Zeit 16:55 06:10 11:10 09:00 13:00 - - 11:30 13:40 13:45 16:55 11:35
Maximum _ 21,4 C 94 % 1034,4 hPa 0,0 l/m 6,8 km/h
O-SO (2 Bft)
- - 10 min 1123 W/m 10,1 C 21,4 C 16,1 km/h
NW (3 Bft)
Durchschnitt _ 13,5 C 70 % 1033,9 hPa #0,0 l/m 0,4 km/h (0 Bft) O-SO - #15 min. 51 W/m 7,6 C 13,5 C 2,4 km/h (1 Bft)